Location: Beneden-Haastrecht
(52.0012°N, 4.7557°E)
Time: 02:56:41
(UTC+00:00)

SKYMED 2 - Pass Details

Date: 24 October 2020
Orbit: 621 x 623 km, 97.9° (Epoch: 24 November)

Event Time Altitude Azimuth Distance (km) Brightness Sun altitude
Rises 17:54:21 0° 15° (NNE) 2,918 6.8 -14.0°
Reaches altitude 10° 17:56:34 10° 16° (NNE) 2,006 6.0 -14.3°
Maximum altitude 18:00:56 79° 104° (ESE) 641 3.5 -15.0°
Drops below altitude 10° 18:05:16 10° 191° (SSW) 1,989 6.3 -15.7°
Sets 18:07:27 0° 193° (SSW) 2,890 7.2 -16.0°
